,,,PA_Meas_PMT16A,,PR_Meas_QMR101_102,,RH_Meas_QMH101,,SR_Meas_QMS101,,TA_Meas_QMH101,,GenWind,,GenWind,
date,time,status,PA,status,PR,status,RH,status,SR,status,TA,status,DirAvg,status,SpdAvg,
2009-09-03, 00:00:05,VALID,1002.48,VALID,0,VALID,84.6958,VALID,0,VALID,26.3128,VALID,357,VALID,0,
2009-09-03, 00:01:05,VALID,1002.47,VALID,0,VALID,84.6195,VALID,0,VALID,26.2933,VALID,357,VALID,0,
2009-09-03, 00:02:05,VALID,1002.47,VALID,0,VALID,84.8408,VALID,0,VALID,26.2544,VALID,357,VALID,0,
2009-09-03, 00:03:05,VALID,1002.51,VALID,0,VALID,85.0468,VALID,0,VALID,26.2154,VALID,357,VALID,0,
2009-09-03, 00:04:05,VALID,1002.51,VALID,0,VALID,85.0696,VALID,0,VALID,26.1765,VALID,357,VALID,0,
2009-09-03, 00:05:05,VALID,1002.51,VALID,0,VALID,85.2909,VALID,0,VALID,26.116,VALID,357,VALID,0,
2009-09-03, 00:06:05,VALID,1002.49,VALID,0,VALID,85.6952,VALID,0,VALID,26.0791,VALID,357,VALID,0,
2009-09-03, 00:07:05,VALID,1002.48,VALID,0,VALID,85.6113,VALID,0,VALID,26.0596,VALID,357,VALID,0,
2009-09-03, 00:08:05,VALID,1002.47,VALID,0,VALID,85.9241,VALID,0,VALID,26.0401,VALID,357,VALID,0,
2009-09-03, 00:09:05,VALID,1002.43,VALID,0,VALID,86.4657,VALID,0,VALID,25.9797,VALID,357,VALID,0,
2009-09-03, 00:10:05,VALID,1002.44,VALID,0,VALID,86.5344,VALID,0,VALID,25.9213,VALID,357,VALID,0,
2009-09-03, 00:11:05,VALID,1002.44,VALID,0,VALID,86.9006,VALID,0,VALID,25.8823,VALID,358,VALID,0,
2009-09-03, 00:12:05,VALID,1002.44,VALID,0,VALID,87.2896,VALID,0,VALID,25.8648,VALID,357,VALID,0,
2009-09-03, 00:13:05,VALID,1002.42,VALID,0,VALID,87.4422,VALID,0,VALID,25.8239,VALID,357,VALID,0,
2009-09-03, 00:14:05,VALID,1002.43,VALID,0,VALID,87.1218,VALID,0,VALID,25.8044,VALID,357,VALID,0,
2009-09-03, 00:15:05,VALID,1002.44,VALID,0,VALID,87.5719,VALID,0,VALID,25.8044,VALID,357,VALID,0,
2009-09-03, 00:16:05,VALID,1002.45,VALID,0,VALID,87.8618,VALID,0,VALID,25.785,VALID,358,VALID,0.0769531,
2009-09-03, 00:17:05,VALID,1002.44,VALID,0,VALID,87.8084,VALID,0,VALID,25.746,VALID,358,VALID,0.00234375,
2009-09-03, 00:18:05,VALID,1002.44,VALID,0,VALID,87.9076,VALID,0,VALID,25.7674,VALID,358,VALID,0,
2009-09-03, 00:19:05,VALID,1002.44,VALID,0,VALID,88.2051,VALID,0,VALID,25.748,VALID,358,VALID,0,
2009-09-03, 00:20:05,VALID,1002.42,VALID,0,VALID,88.0296,VALID,0.100563,VALID,25.7071,VALID,358,VALID,0,
2009-09-03, 00:21:05,VALID,1002.4,VALID,0,VALID,88.2204,VALID,0,VALID,25.6681,VALID,358,VALID,0,
2009-09-03, 00:22:05,VALID,1002.4,VALID,0,VALID,88.1975,VALID,0,VALID,25.6506,VALID,358,VALID,0,
2009-09-03, 00:23:05,VALID,1002.39,VALID,0,VALID,88.3348,VALID,0,VALID,25.6311,VALID,358,VALID,0,
2009-09-03, 00:24:05,VALID,1002.38,VALID,0,VALID,88.0678,VALID,0,VALID,25.5902,VALID,16,VALID,0.376953,
2009-09-03, 00:25:05,VALID,1002.36,VALID,0,VALID,87.9839,VALID,0,VALID,25.6292,VALID,21,VALID,0,
2009-09-03, 00:26:05,VALID,1002.35,VALID,0,VALID,87.7779,VALID,0,VALID,25.6681,VALID,28,VALID,0.479297,
2009-09-03, 00:27:05,VALID,1002.35,VALID,0,VALID,87.488,VALID,0,VALID,25.7265,VALID,12,VALID,0.158203,
2009-09-03, 00:28:05,VALID,1002.4,VALID,0,VALID,87.2744,VALID,0,VALID,25.746,VALID,12,VALID,0.222266,
2009-09-03, 00:29:05,VALID,1002.36,VALID,0,VALID,87.3125,VALID,0,VALID,25.7655,VALID,12,VALID,0.211328,
2009-09-03, 00:30:05,VALID,1002.35,VALID,0,VALID,87.0684,VALID,0,VALID,25.8044,VALID,345,VALID,0.98125,
2009-09-03, 00:31:05,VALID,1002.34,VALID,0,VALID,86.6565,VALID,0,VALID,25.9797,VALID,356,VALID,0.577344,
2009-09-03, 00:32:05,VALID,1002.31,VALID,0,VALID,86.1148,VALID,0,VALID,26.0791,VALID,1,VALID,0.64375,
2009-09-03, 00:33:05,VALID,1002.3,VALID,0,VALID,85.7105,VALID,0,VALID,26.155,VALID,5,VALID,0.462891,
2009-09-03, 00:34:05,VALID,1002.31,VALID,0,VALID,85.2985,VALID,0,VALID,26.2524,VALID,2,VALID,0.766797,
2009-09-03, 00:35:05,VALID,1002.29,VALID,0,VALID,84.3068,VALID,0,VALID,26.4297,VALID,17,VALID,1.4543,
2009-09-03, 00:36:05,VALID,1002.3,VALID,0,VALID,83.7575,VALID,0,VALID,26.5251,VALID,15,VALID,1.2707,
2009-09-03, 00:37:05,VALID,1002.29,VALID,0,VALID,83.0861,VALID,0,VALID,26.6635,VALID,17,VALID,0.437109,
2009-09-03, 00:38:05,VALID,1002.33,VALID,0,VALID,82.9183,VALID,0,VALID,26.6809,VALID,354,VALID,0.828516,
2009-09-03, 00:39:05,VALID,1002.3,VALID,0,VALID,82.7047,VALID,0,VALID,26.7199,VALID,335,VALID,0.892578,
2009-09-03, 00:40:05,VALID,1002.26,VALID,0,VALID,82.6971,VALID,0,VALID,26.7589,VALID,37,VALID,1.09727,
2009-09-03, 00:41:05,VALID,1002.29,VALID,0,VALID,82.8725,VALID,0,VALID,26.7394,VALID,349,VALID,0.812891,
2009-09-03, 00:42:05,VALID,1002.29,VALID,0,VALID,82.8573,VALID,0,VALID,26.7589,VALID,356,VALID,0.880078,
2009-09-03, 00:43:05,VALID,1002.3,VALID,0,VALID,82.9564,VALID,0,VALID,26.7589,VALID,351,VALID,0.738672,
2009-09-03, 00:44:05,VALID,1002.3,VALID,0,VALID,83.1014,VALID,0.100563,VALID,26.7589,VALID,2,VALID,0.549609,
2009-09-03, 00:45:05,VALID,1002.26,VALID,0,VALID,83.1777,VALID,0,VALID,26.7394,VALID,22,VALID,0.498437,
2009-09-03, 00:46:05,VALID,1002.26,VALID,0,VALID,83.2997,VALID,0,VALID,26.7414,VALID,335,VALID,0.677344,
2009-09-03, 00:47:05,VALID,1002.25,VALID,0,VALID,83.3303,VALID,0,VALID,26.7219,VALID,356,VALID,0.607422,
2009-09-03, 00:48:05,VALID,1002.24,VALID,0,VALID,83.4371,VALID,0,VALID,26.6809,VALID,357,VALID,0.474609,
2009-09-03, 00:49:05,VALID,1002.21,VALID,0,VALID,83.3684,VALID,0,VALID,26.642,VALID,350,VALID,1.09102,
2009-09-03, 00:50:05,VALID,1002.18,VALID,0,VALID,83.376,VALID,0,VALID,26.642,VALID,358,VALID,0.383594,
2009-09-03, 00:51:05,VALID,1002.17,VALID,0,VALID,83.46,VALID,0,VALID,26.6635,VALID,340,VALID,0.710547,
2009-09-03, 00:52:05,VALID,1002.14,VALID,0,VALID,83.6049,VALID,0,VALID,26.642,VALID,359,VALID,0.827344,
2009-09-03, 00:53:05,VALID,1002.13,VALID,0,VALID,83.788,VALID,0,VALID,26.642,VALID,338,VALID,0.635938,
2009-09-03, 00:54:04,VALID,1002.11,VALID,0,VALID,83.9635,VALID,0,VALID,26.6225,VALID,341,VALID,0.0910156,
2009-09-03, 00:55:04,VALID,1002.09,VALID,0,VALID,84.3068,VALID,0,VALID,26.6245,VALID,345,VALID,0.321875,
2009-09-03, 00:56:04,VALID,1002.06,VALID,0,VALID,84.5814,VALID,0,VALID,26.5446,VALID,312,VALID,0.0835937,
2009-09-03, 00:57:04,VALID,1002.03,VALID,0,VALID,84.8866,VALID,0,VALID,26.5056,VALID,317,VALID,0,
2009-09-03, 00:58:04,VALID,1002.02,VALID,0,VALID,85.2375,VALID,0,VALID,26.4472,VALID,317,VALID,0,
2009-09-03, 00:59:04,VALID,1002,VALID,0,VALID,85.5808,VALID,0.100563,VALID,26.3887,VALID,317,VALID,0,
2009-09-03, 01:00:04,VALID,1001.99,VALID,0,VALID,85.8859,VALID,0,VALID,26.3108,VALID,349,VALID,0.146484,
2009-09-03, 01:01:04,VALID,1001.97,VALID,0,VALID,86.1758,VALID,0,VALID,26.2309,VALID,349,VALID,0.0398437,
2009-09-03, 01:02:04,VALID,1001.93,VALID,0,VALID,86.4352,VALID,0,VALID,26.2134,VALID,349,VALID,0.0757812,
2009-09-03, 01:03:04,VALID,1001.92,VALID,0,VALID,86.7404,VALID,0,VALID,26.1745,VALID,19,VALID,0.454688,
2009-09-03, 01:04:04,VALID,1001.92,VALID,0,VALID,86.9464,VALID,0,VALID,26.1355,VALID,73,VALID,0.166797,
2009-09-03, 01:05:04,VALID,1001.91,VALID,0,VALID,87.2286,VALID,0,VALID,26.118,VALID,81,VALID,0.0519531,
2009-09-03, 01:06:04,VALID,1001.92,VALID,0,VALID,87.2744,VALID,0,VALID,26.0576,VALID,80,VALID,0.0152344,
2009-09-03, 01:07:04,VALID,1001.91,VALID,0,VALID,87.4346,VALID,0,VALID,26.0401,VALID,56,VALID,0.24375,
2009-09-03, 01:08:04,VALID,1001.89,VALID,0,VALID,87.6253,VALID,0,VALID,25.9992,VALID,1,VALID,0.673828,
2009-09-03, 01:09:04,VALID,1001.87,VALID,0,VALID,87.8694,VALID,0,VALID,25.9797,VALID,330,VALID,0.695703,
2009-09-03, 01:10:04,VALID,1001.88,VALID,0,VALID,87.9686,VALID,0,VALID,25.9408,VALID,345,VALID,0.170703,
2009-09-03, 01:11:04,VALID,1001.84,VALID,0,VALID,88.0449,VALID,0,VALID,25.9427,VALID,348,VALID,0.4,
2009-09-03, 01:12:04,VALID,1001.83,VALID,0,VALID,88.1899,VALID,0,VALID,25.9038,VALID,342,VALID,0.290625,
2009-09-03, 01:13:04,VALID,1001.8,VALID,0,VALID,88.3043,VALID,0,VALID,25.8629,VALID,326,VALID,0.107422,
2009-09-03, 01:14:04,VALID,1001.8,VALID,0,VALID,88.2967,VALID,0,VALID,25.8648,VALID,328,VALID,0.258984,
2009-09-03, 01:15:04,VALID,1001.77,VALID,0,VALID,88.3729,VALID,0,VALID,25.8239,VALID,330,VALID,0.348828,
2009-09-03, 01:16:04,VALID,1001.78,VALID,0,VALID,88.2509,VALID,0,VALID,25.8453,VALID,337,VALID,0.520703,
2009-09-03, 01:17:04,VALID,1001.76,VALID,0,VALID,88.1212,VALID,0,VALID,25.8239,VALID,336,VALID,0.26875,
2009-09-03, 01:18:04,VALID,1001.74,VALID,0,VALID,88.0373,VALID,0,VALID,25.8648,VALID,329,VALID,0.448438,
2009-09-03, 01:19:04,VALID,1001.71,VALID,0,VALID,87.816,VALID,0,VALID,25.8629,VALID,343,VALID,0.583984,
2009-09-03, 01:20:04,VALID,1001.71,VALID,0,VALID,87.7398,VALID,0,VALID,25.8609,VALID,345,VALID,0.459375,
2009-09-03, 01:21:04,VALID,1001.72,VALID,0,VALID,87.2744,VALID,0,VALID,25.9018,VALID,353,VALID,0.304297,
2009-09-03, 01:22:04,VALID,1001.72,VALID,0,VALID,87.0074,VALID,0,VALID,25.9232,VALID,348,VALID,0.338281,
2009-09-03, 01:23:04,VALID,1001.74,VALID,0,VALID,86.8395,VALID,0,VALID,25.9213,VALID,325,VALID,0.460156,
2009-09-03, 01:24:04,VALID,1001.75,VALID,0,VALID,86.9921,VALID,0,VALID,25.9622,VALID,325,VALID,0.0148437,
2009-09-03, 01:25:04,VALID,1001.75,VALID,0,VALID,86.748,VALID,0,VALID,25.9427,VALID,317,VALID,0.301172,
2009-09-03, 01:26:04,VALID,1001.74,VALID,0,VALID,86.4657,VALID,0,VALID,25.9408,VALID,329,VALID,0.562891,
2009-09-03, 01:27:04,VALID,1001.74,VALID,0,VALID,86.1758,VALID,0,VALID,25.9622,VALID,344,VALID,0.203906,
2009-09-03, 01:28:04,VALID,1001.74,VALID,0,VALID,85.6494,VALID,0,VALID,25.9797,VALID,344,VALID,0.534766,
2009-09-03, 01:29:04,VALID,1001.74,VALID,0,VALID,85.2756,VALID,0,VALID,26.0012,VALID,344,VALID,0.408594,
2009-09-03, 01:30:04,VALID,1001.71,VALID,0,VALID,85.3061,VALID,0,VALID,26.0187,VALID,344,VALID,0.277734,
2009-09-03, 01:31:04,VALID,1001.71,VALID,0,VALID,85.1002,VALID,0,VALID,26.0596,VALID,344,VALID,0.413281,
2009-09-03, 01:32:04,VALID,1001.67,VALID,0,VALID,85.2299,VALID,0,VALID,26.0596,VALID,344,VALID,0.411328,
2009-09-03, 01:33:04,VALID,1001.66,VALID,0,VALID,85.4282,VALID,0,VALID,26.0596,VALID,344,VALID,0.376563,
2009-09-03, 01:34:04,VALID,1001.65,VALID,0,VALID,85.4969,VALID,0,VALID,26.0401,VALID,344,VALID,0.298047,
2009-09-03, 01:35:04,VALID,1001.65,VALID,0,VALID,85.4511,VALID,0,VALID,25.9992,VALID,344,VALID,0.263672,
2009-09-03, 01:36:04,VALID,1001.67,VALID,0,VALID,85.8173,VALID,0,VALID,26.0012,VALID,344,VALID,0.015625,
2009-09-03, 01:37:04,VALID,1001.63,VALID,0,VALID,86.1224,VALID,0,VALID,25.9408,VALID,344,VALID,0.0644531,
2009-09-03, 01:38:04,VALID,1001.67,VALID,0,VALID,86.7099,VALID,0,VALID,25.8823,VALID,344,VALID,0.00429688,
2009-09-03, 01:39:04,VALID,1001.62,VALID,0,VALID,86.9769,VALID,0,VALID,25.785,VALID,344,VALID,0.00234375,
2009-09-03, 01:40:04,VALID,1001.63,VALID,0,VALID,87.1905,VALID,0,VALID,25.748,VALID,344,VALID,0.143359,
2009-09-03, 01:41:04,VALID,1001.63,VALID,0,VALID,87.2591,VALID,0,VALID,25.709,VALID,344,VALID,0,
2009-09-03, 01:42:04,VALID,1001.62,VALID,0,VALID,87.6253,VALID,0,VALID,25.67,VALID,344,VALID,0,
2009-09-03, 01:43:04,VALID,1001.6,VALID,0,VALID,87.8771,VALID,0,VALID,25.6097,VALID,344,VALID,0,
2009-09-03, 01:44:04,VALID,1001.6,VALID,0,VALID,87.9076,VALID,0,VALID,25.5707,VALID,344,VALID,0,
2009-09-03, 01:45:04,VALID,1001.57,VALID,0,VALID,88.2585,VALID,0,VALID,25.5123,VALID,344,VALID,0.0722656,
2009-09-03, 01:46:04,VALID,1001.57,VALID,0,VALID,88.6552,VALID,0,VALID,25.4753,VALID,344,VALID,0.215625,
2009-09-03, 01:47:04,VALID,1001.56,VALID,0,VALID,88.8688,VALID,0,VALID,25.376,VALID,344,VALID,0.349219,
2009-09-03, 01:48:04,VALID,1001.56,VALID,0,VALID,89.1664,VALID,0,VALID,25.2981,VALID,344,VALID,0.142969,
2009-09-03, 01:49:04,VALID,1001.57,VALID,0,VALID,89.5173,VALID,0,VALID,25.2611,VALID,344,VALID,0,
2009-09-03, 01:50:04,VALID,1001.55,VALID,0,VALID,89.7233,VALID,0,VALID,25.2202,VALID,344,VALID,0,
2009-09-03, 01:51:04,VALID,1001.54,VALID,0,VALID,89.8682,VALID,0,VALID,25.1637,VALID,344,VALID,0,
2009-09-03, 01:52:04,VALID,1001.51,VALID,0,VALID,90.1886,VALID,0,VALID,25.1034,VALID,344,VALID,0.205469,
2009-09-03, 01:53:04,VALID,1001.49,VALID,0,VALID,90.3793,VALID,0,VALID,25.0858,VALID,344,VALID,0.2375,
2009-09-03, 01:54:04,VALID,1001.44,VALID,0,VALID,90.5701,VALID,0,VALID,25.0469,VALID,344,VALID,0.182812,
2009-09-03, 01:55:04,VALID,1001.46,VALID,0,VALID,90.6921,VALID,0,VALID,25.0079,VALID,344,VALID,0.295703,
2009-09-03, 01:56:04,VALID,1001.42,VALID,0,VALID,90.654,VALID,0,VALID,24.9495,VALID,344,VALID,0.36875,
2009-09-03, 01:57:04,VALID,1001.4,VALID,0,VALID,90.7608,VALID,0,VALID,24.93,VALID,344,VALID,0.368359,
2009-09-03, 01:58:04,VALID,1001.39,VALID,0,VALID,90.9057,VALID,0,VALID,24.9106,VALID,344,VALID,0.360938,
2009-09-03, 01:59:04,VALID,1001.39,VALID,0,VALID,91.0354,VALID,0,VALID,24.8911,VALID,344,VALID,0.334766,
2009-09-03, 02:00:04,VALID,1001.37,VALID,0,VALID,91.2033,VALID,0,VALID,24.8716,VALID,344,VALID,0.250781,
2009-09-03, 02:01:04,VALID,1001.35,VALID,0,VALID,91.4626,VALID,0,VALID,24.8308,VALID,344,VALID,0,
2009-09-03, 02:02:04,VALID,1001.34,VALID,0,VALID,91.5771,VALID,0,VALID,24.8113,VALID,344,VALID,0,
2009-09-03, 02:03:04,VALID,1001.33,VALID,0,VALID,91.6152,VALID,0,VALID,24.7724,VALID,344,VALID,0,
2009-09-03, 02:04:04,VALID,1001.32,VALID,0,VALID,91.6381,VALID,0,VALID,24.7353,VALID,344,VALID,0,
2009-09-03, 02:05:04,VALID,1001.28,VALID,0,VALID,91.6991,VALID,0,VALID,24.7159,VALID,344,VALID,0,
2009-09-03, 02:06:04,VALID,1001.29,VALID,0,VALID,91.8059,VALID,0,VALID,24.6574,VALID,344,VALID,0.217578,
2009-09-03, 02:07:04,VALID,1001.3,VALID,0,VALID,91.867,VALID,0,VALID,24.6361,VALID,344,VALID,0.221875,
2009-09-03, 02:08:04,VALID,1001.29,VALID,0,VALID,91.6381,VALID,0,VALID,24.6166,VALID,344,VALID,0,
2009-09-03, 02:09:04,VALID,1001.31,VALID,0,VALID,91.4245,VALID,0,VALID,24.6166,VALID,344,VALID,0,
2009-09-03, 02:10:04,VALID,1001.3,VALID,0,VALID,91.2567,VALID,0,VALID,24.5972,VALID,344,VALID,0,
2009-09-03, 02:11:04,VALID,1001.27,VALID,0,VALID,91.0965,VALID,0,VALID,24.5777,VALID,344,VALID,0,
2009-09-03, 02:12:04,VALID,1001.28,VALID,0,VALID,91.0888,VALID,0,VALID,24.5777,VALID,344,VALID,0,
2009-09-03, 02:13:04,VALID,1001.28,VALID,0,VALID,91.1651,VALID,0.100563,VALID,24.5777,VALID,344,VALID,0,
2009-09-03, 02:14:04,VALID,1001.3,VALID,0,VALID,91.3024,VALID,0.100563,VALID,24.5369,VALID,344,VALID,0,
2009-09-03, 02:15:04,VALID,1001.31,VALID,0,VALID,91.4321,VALID,0,VALID,24.5582,VALID,344,VALID,0,
2009-09-03, 02:16:04,VALID,1001.31,VALID,0,VALID,91.5161,VALID,0.100563,VALID,24.5388,VALID,344,VALID,0,
2009-09-03, 02:17:04,VALID,1001.31,VALID,0,VALID,91.5389,VALID,0,VALID,24.4998,VALID,344,VALID,0,
2009-09-03, 02:18:04,VALID,1001.29,VALID,0,VALID,91.6229,VALID,0.100563,VALID,24.4609,VALID,344,VALID,0,
2009-09-03, 02:19:04,VALID,1001.28,VALID,0,VALID,91.7525,VALID,0,VALID,24.422,VALID,344,VALID,0,
2009-09-03, 02:20:04,VALID,1001.27,VALID,0,VALID,91.8365,VALID,0,VALID,24.3849,VALID,344,VALID,0,
2009-09-03, 02:21:04,VALID,1001.22,VALID,0,VALID,91.7831,VALID,0.100563,VALID,24.3459,VALID,344,VALID,0,
2009-09-03, 02:22:04,VALID,1001.2,VALID,0,VALID,91.9585,VALID,0.100563,VALID,24.3052,VALID,344,VALID,0,
2009-09-03, 02:23:04,VALID,1001.18,VALID,0,VALID,92.0043,VALID,0,VALID,24.2662,VALID,344,VALID,0,
2009-09-03, 02:24:04,VALID,1001.14,VALID,0,VALID,91.9662,VALID,0,VALID,24.2662,VALID,344,VALID,0,
2009-09-03, 02:25:04,VALID,1001.15,VALID,0,VALID,91.9814,VALID,0.100563,VALID,24.2468,VALID,344,VALID,0,
2009-09-03, 02:26:04,VALID,1001.13,VALID,0,VALID,92.0424,VALID,0.100563,VALID,24.2468,VALID,344,VALID,0,
2009-09-03, 02:27:04,VALID,1001.12,VALID,0,VALID,91.928,VALID,0.100563,VALID,24.2078,VALID,344,VALID,0,
2009-09-03, 02:28:04,VALID,1001.12,VALID,0,VALID,91.867,VALID,0.100563,VALID,24.2273,VALID,344,VALID,0,
2009-09-03, 02:29:04,VALID,1001.13,VALID,0,VALID,92.0348,VALID,0.100563,VALID,24.2078,VALID,344,VALID,0,
2009-09-03, 02:30:04,VALID,1001.17,VALID,0,VALID,92.1264,VALID,0.100563,VALID,24.1884,VALID,344,VALID,0,
2009-09-03, 02:31:04,VALID,1001.16,VALID,0,VALID,92.1035,VALID,0.100563,VALID,24.1281,VALID,344,VALID,0,
2009-09-03, 02:32:04,VALID,1001.16,VALID,0,VALID,91.9128,VALID,0.100563,VALID,24.13,VALID,344,VALID,0,
2009-09-03, 02:33:04,VALID,1001.12,VALID,0,VALID,91.8136,VALID,0.100563,VALID,24.1105,VALID,344,VALID,0,
2009-09-03, 02:34:04,VALID,1001.12,VALID,0,VALID,91.8441,VALID,0.100563,VALID,24.0716,VALID,344,VALID,0,
2009-09-03, 02:35:04,VALID,1001.11,VALID,0,VALID,91.8899,VALID,0.100563,VALID,24.0503,VALID,344,VALID,0,
2009-09-03, 02:36:04,VALID,1001.09,VALID,0,VALID,92.0119,VALID,0.100563,VALID,24.0521,VALID,344,VALID,0,
2009-09-03, 02:37:04,VALID,1001.06,VALID,0,VALID,91.9738,VALID,0,VALID,24.0326,VALID,344,VALID,0,
2009-09-03, 02:38:04,VALID,1001.03,VALID,0,VALID,91.9356,VALID,0.100563,VALID,24.0132,VALID,344,VALID,0,
2009-09-03, 02:39:04,VALID,1001.02,VALID,0,VALID,91.8746,VALID,0.100563,VALID,24.0132,VALID,344,VALID,0,
2009-09-03, 02:40:04,VALID,1000.98,VALID,0,VALID,91.8136,VALID,0.100563,VALID,24.0132,VALID,344,VALID,0,
2009-09-03, 02:41:04,VALID,1000.97,VALID,0,VALID,91.7983,VALID,0,VALID,23.9742,VALID,344,VALID,0,
2009-09-03, 02:42:04,VALID,1000.97,VALID,0,VALID,91.8746,VALID,0.100563,VALID,23.9742,VALID,344,VALID,0,
2009-09-03, 02:43:04,VALID,1000.97,VALID,0,VALID,92.0424,VALID,0,VALID,23.9761,VALID,344,VALID,0,
2009-09-03, 02:44:04,VALID,1000.97,VALID,0,VALID,92.2332,VALID,0,VALID,23.9353,VALID,344,VALID,0,
2009-09-03, 02:45:04,VALID,1000.94,VALID,0,VALID,92.1798,VALID,0,VALID,23.9159,VALID,344,VALID,0.00585938,
2009-09-03, 02:46:04,VALID,1000.94,VALID,0,VALID,92.2866,VALID,0,VALID,23.8964,VALID,344,VALID,0.498437,
2009-09-03, 02:47:04,VALID,1000.95,VALID,0,VALID,92.3705,VALID,0,VALID,23.8982,VALID,344,VALID,0.371484,
2009-09-03, 02:48:04,VALID,1000.96,VALID,0,VALID,92.3552,VALID,0,VALID,23.8787,VALID,344,VALID,0.434766,
2009-09-03, 02:49:04,VALID,1000.94,VALID,0,VALID,92.401,VALID,0,VALID,23.8593,VALID,344,VALID,0.279687,
2009-09-03, 02:50:04,VALID,1000.92,VALID,0,VALID,92.462,VALID,0,VALID,23.8203,VALID,344,VALID,0.422266,
2009-09-03, 02:51:04,VALID,1000.91,VALID,0,VALID,92.6146,VALID,0,VALID,23.7991,VALID,344,VALID,0.182422,
2009-09-03, 02:52:04,VALID,1000.91,VALID,0,VALID,92.7519,VALID,0,VALID,23.8009,VALID,344,VALID,0,
2009-09-03, 02:53:04,VALID,1000.92,VALID,0,VALID,92.8587,VALID,0,VALID,23.7796,VALID,344,VALID,0.116797,
2009-09-03, 02:54:04,VALID,1000.9,VALID,0,VALID,92.9655,VALID,0,VALID,23.7991,VALID,344,VALID,0.132813,
2009-09-03, 02:55:04,VALID,1000.93,VALID,0,VALID,92.9961,VALID,0,VALID,23.7601,VALID,344,VALID,0.125391,
2009-09-03, 02:56:04,VALID,1000.93,VALID,0,VALID,93.0113,VALID,0,VALID,23.7407,VALID,344,VALID,0,
2009-09-03, 02:57:04,VALID,1000.97,VALID,0,VALID,93.0418,VALID,0,VALID,23.7212,VALID,344,VALID,0,
2009-09-03, 02:58:04,VALID,1000.94,VALID,0,VALID,93.0495,VALID,0,VALID,23.7017,VALID,344,VALID,0,
2009-09-03, 02:59:04,VALID,1000.9,VALID,0,VALID,93.0876,VALID,0,VALID,23.7035,VALID,344,VALID,0,
2009-09-03, 03:00:04,VALID,1000.94,VALID,0,VALID,93.1257,VALID,0,VALID,23.6823,VALID,344,VALID,0,
2009-09-03, 03:01:04,VALID,1000.94,VALID,0,VALID,93.08,VALID,0,VALID,23.6628,VALID,344,VALID,0,
2009-09-03, 03:02:04,VALID,1000.97,VALID,0,VALID,93.0113,VALID,0,VALID,23.6434,VALID,344,VALID,0,
2009-09-03, 03:03:04,VALID,1000.94,VALID,0,VALID,92.9961,VALID,0,VALID,23.6239,VALID,344,VALID,0,
2009-09-03, 03:04:04,VALID,1000.96,VALID,0,VALID,93.0342,VALID,0,VALID,23.6239,VALID,344,VALID,0,
2009-09-03, 03:05:04,VALID,1000.91,VALID,0,VALID,93.0647,VALID,0,VALID,23.6239,VALID,344,VALID,0,
2009-09-03, 03:06:04,VALID,1000.89,VALID,0,VALID,93.0723,VALID,0,VALID,23.6044,VALID,344,VALID,0,
2009-09-03, 03:07:04,VALID,1000.86,VALID,0,VALID,93.0952,VALID,0,VALID,23.6239,VALID,344,VALID,0,
2009-09-03, 03:08:04,VALID,1000.87,VALID,0,VALID,93.202,VALID,0,VALID,23.6239,VALID,344,VALID,0,
2009-09-03, 03:09:04,VALID,1000.85,VALID,0,VALID,93.2097,VALID,0,VALID,23.6239,VALID,344,VALID,0,
2009-09-03, 03:10:04,VALID,1000.85,VALID,0,VALID,93.2478,VALID,0,VALID,23.6646,VALID,344,VALID,0,
2009-09-03, 03:11:04,VALID,1000.83,VALID,0,VALID,93.2707,VALID,0,VALID,23.6646,VALID,344,VALID,0,
2009-09-03, 03:12:04,VALID,1000.86,VALID,0,VALID,93.2783,VALID,0,VALID,23.6239,VALID,344,VALID,0,
2009-09-03, 03:13:04,VALID,1000.86,VALID,0,VALID,93.3088,VALID,0,VALID,23.6452,VALID,344,VALID,0,
2009-09-03, 03:14:04,VALID,1000.82,VALID,0,VALID,93.2631,VALID,0,VALID,23.6239,VALID,344,VALID,0,
2009-09-03, 03:15:04,VALID,1000.83,VALID,0,VALID,93.1868,VALID,0,VALID,23.6257,VALID,344,VALID,0,
2009-09-03, 03:16:04,VALID,1000.82,VALID,0,VALID,93.1791,VALID,0,VALID,23.6239,VALID,344,VALID,0,
2009-09-03, 03:17:04,VALID,1000.85,VALID,0,VALID,93.1868,VALID,0,VALID,23.6239,VALID,344,VALID,0,
2009-09-03, 03:18:04,VALID,1000.83,VALID,0,VALID,93.202,VALID,0,VALID,23.6239,VALID,344,VALID,0,
2009-09-03, 03:19:04,VALID,1000.81,VALID,0,VALID,93.2707,VALID,0,VALID,23.6434,VALID,344,VALID,0,
2009-09-03, 03:20:04,VALID,1000.81,VALID,0,VALID,93.1868,VALID,0,VALID,23.6646,VALID,344,VALID,0,
2009-09-03, 03:21:04,VALID,1000.82,VALID,0,VALID,93.1791,VALID,0,VALID,23.6434,VALID,344,VALID,0,
2009-09-03, 03:22:04,VALID,1000.83,VALID,0,VALID,93.1715,VALID,0,VALID,23.6434,VALID,344,VALID,0,
2009-09-03, 03:23:04,VALID,1000.82,VALID,0,VALID,93.2402,VALID,0,VALID,23.6452,VALID,344,VALID,0,
2009-09-03, 03:24:04,VALID,1000.86,VALID,0,VALID,93.4004,VALID,0,VALID,23.6841,VALID,344,VALID,0,
2009-09-03, 03:25:04,VALID,1000.87,VALID,0,VALID,93.4462,VALID,0,VALID,23.6628,VALID,344,VALID,0,
2009-09-03, 03:26:04,VALID,1000.89,VALID,0,VALID,93.4538,VALID,0,VALID,23.7017,VALID,344,VALID,0,
2009-09-03, 03:27:04,VALID,1000.89,VALID,0,VALID,93.4004,VALID,0,VALID,23.7619,VALID,344,VALID,0,
2009-09-03, 03:28:04,VALID,1000.89,VALID,0,VALID,93.4233,VALID,0,VALID,23.7796,VALID,344,VALID,0,
2009-09-03, 03:29:04,VALID,1000.89,VALID,0,VALID,93.3622,VALID,0,VALID,23.7991,VALID,344,VALID,0,
2009-09-03, 03:30:04,VALID,1000.92,VALID,0,VALID,93.4309,VALID,0,VALID,23.838,VALID,344,VALID,0,
2009-09-03, 03:31:04,VALID,1000.9,VALID,0,VALID,93.3928,VALID,0,VALID,23.8575,VALID,344,VALID,0,
2009-09-03, 03:32:04,VALID,1000.9,VALID,0,VALID,93.2783,VALID,0,VALID,23.8575,VALID,345,VALID,0,
2009-09-03, 03:33:04,VALID,1000.9,VALID,0,VALID,93.1715,VALID,0,VALID,23.9195,VALID,345,VALID,0,
2009-09-03, 03:34:04,VALID,1000.94,VALID,0,VALID,92.9198,VALID,0,VALID,23.8982,VALID,345,VALID,0.402344,
2009-09-03, 03:35:04,VALID,1000.93,VALID,0,VALID,92.9961,VALID,0,VALID,23.9177,VALID,345,VALID,0.225,
2009-09-03, 03:36:04,VALID,1000.95,VALID,0,VALID,93.0495,VALID,0,VALID,23.9371,VALID,345,VALID,0.00976563,
2009-09-03, 03:37:04,VALID,1000.97,VALID,0,VALID,93.0266,VALID,0,VALID,23.9779,VALID,345,VALID,0.0804688,
2009-09-03, 03:38:04,VALID,1000.99,VALID,0,VALID,92.8358,VALID,0,VALID,23.9761,VALID,345,VALID,0.224219,
2009-09-03, 03:39:04,VALID,1001,VALID,0,VALID,92.9121,VALID,0,VALID,23.9955,VALID,345,VALID,0.190234,
2009-09-03, 03:40:04,VALID,1000.99,VALID,0,VALID,93.0418,VALID,0,VALID,24.0132,VALID,345,VALID,0,
2009-09-03, 03:41:04,VALID,1000.99,VALID,0,VALID,93.1181,VALID,0,VALID,24.0326,VALID,345,VALID,0,
2009-09-03, 03:42:04,VALID,1000.95,VALID,0,VALID,93.0418,VALID,0,VALID,24.0929,VALID,345,VALID,0.439844,
2009-09-03, 03:43:04,VALID,1000.95,VALID,0,VALID,92.9884,VALID,0,VALID,24.1123,VALID,345,VALID,0.225781,
2009-09-03, 03:44:04,VALID,1000.95,VALID,0,VALID,92.874,VALID,0,VALID,24.091,VALID,345,VALID,0.170703,
2009-09-03, 03:45:04,VALID,1000.94,VALID,0,VALID,92.813,VALID,0,VALID,24.1105,VALID,345,VALID,0.1625,
2009-09-03, 03:46:04,VALID,1000.92,VALID,0,VALID,92.7672,VALID,0,VALID,24.1318,VALID,345,VALID,0,
2009-09-03, 03:47:04,VALID,1000.9,VALID,0,VALID,92.7672,VALID,0,VALID,24.13,VALID,345,VALID,0,
2009-09-03, 03:48:04,VALID,1000.92,VALID,0,VALID,92.8969,VALID,0,VALID,24.1707,VALID,345,VALID,0,
2009-09-03, 03:49:04,VALID,1000.93,VALID,0,VALID,92.813,VALID,0,VALID,24.1513,VALID,345,VALID,0,
2009-09-03, 03:50:04,VALID,1000.95,VALID,0,VALID,92.7748,VALID,0,VALID,24.1513,VALID,345,VALID,0,